Regional Weather Roundup
Issued by NWS

Home | Current Version | Previous Version | Text Only | Print | Product List | Glossary Off
Versions: 1 2 3 4 5 6 7 8 9 10 11 12 13 14 15 16 17 18 19 20 21 22 23 24 25 26 27 28 29 30 31 32 33 34 35 36 37 38 39 40 41 42 43 44 45 46 47 48 49 50

000
ASUS43 KDTX 291710
RWRMI
MICHIGAN HOURLY REGIONAL WEATHER ROUNDUP
NATIONAL WEATHER SERVICE DETROIT/PONTIAC MI
100 PM EDT FRI MAY 29 2015

NOTE: "FAIR" INDICATES FEW OR NO CLOUDS BELOW 12,000 FEET WITH NO
SIGNIFICANT WEATHER AND/OR OBSTRUCTION TO VISIBILITY.

MIZ047>049-052>055-059>063-066>070-074>076-081>083-291800-
SOUTHEAST LOWER MICHIGAN

CITY           SKY/WX    TMP DP  RH WIND       PRES   REMARKS
ADRIAN         PTSUNNY   76  66  71 SW8       30.12F
ALMA           PTSUNNY   80  65  59 S14G21    30.07F
ANN ARBOR      CLOUDY    75  64  68 S8        30.13S
BAD AXE        PTSUNNY   80  61  53 S15G21    30.10F
CARO           PTSUNNY   82  65  56 S14G21    30.09F
DETROIT CITY   PTSUNNY   76  63  64 S14       30.13F
DETROIT        LGT RAIN  75  66  73 S14       30.14S
FLINT          PTSUNNY   84  65  52 S16       30.10F
GROSSE ILE     RAIN      66  63  88 S6        30.14R
HILLSDALE      MOSUNNY   80  64  58 S9        30.12F
HOWELL         PTSUNNY   80  63  56 S15       30.11F

CITY           SKY/WX    TMP DP  RH WIND       PRES   REMARKS
JACKSON        MOSUNNY   79  66  64 S13       30.10F
LAMBERTVILLE   CLOUDY    73  68  83 S6        30.13F
LANSING        PTSUNNY   81  65  58 S17       30.09F
LAPEER         PTSUNNY   83  61  46 S15       30.11F
MASON          CLOUDY    76  64  66 S6        30.10F
MONROE         HVY RAIN  70  68  94 SE5       30.13S
MT. CLEMENS    CLOUDY    75  64  69 S9        30.11F
PONTIAC        PTSUNNY   78  64  61 S12       30.11F
PORT HOPE        N/A     80  63  55 S8G17     30.08F
PORT HURON     CLOUDY    77  63  61 S13       30.14S
TRI CITIES     MOSUNNY   83  64  52 S17       30.08F
MIDLAND        FAIR      81  63  53 S9        30.06F
TROY           CLOUDY    78  64  62 SW8       30.14S
SAGINAW HB     PTSUNNY   81  61  50 S16G24    30.07F
$$
MIZ043>046-050>051-056>058-064>065-071>073-077>080-291800-
SOUTHWEST LOWER MICHIGAN

CITY           SKY/WX    TMP DP  RH WIND       PRES   REMARKS
BATTLE CREEK   MOSUNNY   80  64  58 S12       30.09F
BENTON HARBOR  PTSUNNY   82  66  58 SW13      30.04F
BIG RAPIDS     PTSUNNY   79  61  53 S10       30.04F
COLDWATER      MOSUNNY   80  61  52 S8        30.10F
FREMONT        CLOUDY    80  65  60 S10G21    30.04F
HOLLAND        MOSUNNY   81  66  60 SW13      30.05F
GRAND RAPIDS   PTSUNNY   80  65  59 S9        30.06F
IONIA          FAIR      81  62  52 S15       30.07F
KALAMAZOO      MOSUNNY   81  64  56 S9G17     30.08F
LUDINGTON      RAIN      58  56  91 S6        30.05F
MARSHALL       MOSUNNY   81  64  56 S12       30.09F
MOUNT PLEASANT PTSUNNY   80  63  55 S16       30.06F
MUSKEGON       MOSUNNY   78  65  63 S15       30.04F
SOUTH HAVEN    PTSUNNY   80  63  56 W9        30.05F
$$
MIZ016>042-291800-
NORTHERN LOWER MICHIGAN

CITY           SKY/WX    TMP DP  RH WIND       PRES   REMARKS
ALPENA         CLOUDY    79  63  57 S8        30.04F
BEAVER ISLAND  RAIN      59  57  93 SW9       30.02S
BELLAIRE       CLOUDY    73  65  74 CALM      30.01F
CADILLAC       PTSUNNY   75  64  68 S12       30.05F
CHARLEVOIX     CLOUDY    71  60  68 W13       30.05S
FRANKFORT      LGT RAIN  63  57  82 CALM      30.04F
GAYLORD        PTSUNNY   77  62  59 S17G25    30.04F
GRAYLING       LGT RAIN  74  62  66 S12       30.06F
HARBOR SPRINGS CLOUDY    74  61  64 W5        30.01F
HOUGHTON LAKE  CLOUDY    73  62  68 SW7       30.07F
MANISTEE       CLOUDY    61  57  88 W7        30.05F
OSCODA         CLOUDY    79  62  55 S10G17    30.07F
PELLSTON       CLOUDY    77  61  57 SW16G22   30.02S
ROGERS CITY    CLOUDY    78  64  61 S10       30.03F
TRAVERSE CITY  TSTM      68  63  84 W16G30    30.02R VSB 1/2
$$
MIZ007>008-015-291800-
EASTERN UPPER MICHIGAN

CITY           SKY/WX    TMP DP  RH WIND       PRES   REMARKS
KINROSS        CLOUDY    72  61  68 S8        30.02F
MACKINAC ISLAN CLOUDY    64  53  67 CALM      30.02S
NEWBERRY       LGT RAIN  62  58  89 S7        29.99F
S. S. MARIE    CLOUDY    67  56  67 SE7       30.02R
MUNISING         N/A     66  59  78 S9        29.92F
$$
MIZ004>006-011>014-085-291800-
CENTRAL UPPER MICHIGAN

CITY           SKY/WX    TMP DP  RH WIND       PRES   REMARKS
MANISTIQUE     LGT RAIN  52  50  93 S14       30.00R
ESCANABA       CLOUDY    59  54  82 S8        29.95F
MENOMINEE      CLOUDY    66  61  82 S8        29.95F
SAWYER-GWINN   PTSUNNY   66  59  77 S10       29.92F
$$
MIZ001>003-009>011-084-291800-
WESTERN UPPER MICHIGAN

CITY           SKY/WX    TMP DP  RH WIND       PRES   REMARKS
IRON MOUNTAIN  PTSUNNY   74  61  63 S14G24    29.91F
HOUGHTON       CLOUDY    64  60  87 CALM      29.87F
COPPER HARBOR    N/A     66  55  67 SW7       29.86F
IRONWOOD       CLOUDY    64  63  94 W8        29.86S
$$

ABBREVIATIONS USED IN REMARKS
   TC - TEMPERATURE IN CELSIUS
  WCI - WIND CHILL INDEX
   HX - HEAT INDEX
  VSB - VISIBILITY



USA.gov is the U.S. government's official web portal to all federal, state and local government web resources and services.